ATLAS 5 CENTAUR DEB, 43974

Orbit data source: Space-Track

ATLAS 5 CENTAUR DEB, 43974 is space debris in HEO originally from a launch on Wed, 17 Sep 2014 UTC launched from the Air Force Eastern Test Range (AFETR). Debris objects in space refer to the collection of defunct objects orbiting the Earth. Examples of debris include non-operational satellites, rocket bodies, and fragments generated from explosions, collisions, or faulty payload assembly.

Loading next visibility...
ATLAS 5 CENTAUR DEB details
Identifier
43974, 2014-055AD
Orbit
HEO
Last TLE update3 months ago
Origin
Flag of USULA (US)
ManufacturerUnknown
MissionSpacecraft
Bus & MotorUnknown
MassUnknown
Launch date (UTC)
2014-09-17 (10 years ago)
Launch vehicleUnknown
Launch site
Air Force Eastern Test Range (AFETR)
Object type
Payload
Rocket body
Debris
Shape & HBRUnknown
Radar Cross SectionSmall (<0.1 m²)

Expand to show TLE details & history

TLE from 3 months ago
0 ATLAS 5 CENTAUR DEB
1 43974U 14055AD  24275.23317249 -.00000023  00000-0  00000-0 0  9999
2 43974  19.6556 194.9279 5015527  70.9832 335.4443  1.84493390 41008
Epoch: 2024-10-01T05:35Z
Definitive object data (Epoch: 2024-10-01T05:35:46.103Z)
Latitude0.00006°
Longitude100.53264°
Altitude11,708.713 km
Speed5.466 km/s
True Right ascension12h 59m 41s
True Declination0° 00' 00"
Sunlit
Object was in daylight at TLE epoch
Visualization TLE readout
Latitude18.36025°
Longitude160.23415°
Altitude7,760.022 km
Speed6.496 km/s
Apparent Right ascension18h 10m 25s
Apparent Declination1° 22' 38"
Sunlit
Object is in daylight
Visualization observer readout
Local Sidereal Time10:01:22
Azimuth66.886° ENE
Elevation-23.194°
Doppler factor1
Orbital elements
Apogee altitude35,790.211 km
Perigee altitude7,619.839 km
Semi-major axis28,083.162 km
Eccentricity0.5015527
Inclination19.6556°
RAAN194.9279°
Arg. of periapsis70.9832°
True anomaly288.83185°
Mean anomaly335.4443°
Eccentric anomaly315.19275°
Mean motion0.46118 °/min
BSTARUnknown
Orbital period780.6 mins
Loading maneuver chart data...

ATLAS 5 CENTAUR DEB Visibility forecast

Observer location: undefined°, undefined

Span
Click to sort rows by Start time (UTC) header in descending order
Start Az.
Max El. time (UTC)
Max El. Az.
Max El.
End time (UTC)
End Az.
636 mins2024-12-27 00:04:09.594Z264.283° W2024-12-27 00:51:09.594Z201.524° SSW31.694°2024-12-27 10:40:09.594Z176.436° S
|